Weather reports worldwide

Advertisment
Biarritz, France (7602): temperature & dewpoint: 12.10.2018 19:00:00 - 18.10.2018 19:00:00 (CEST)Biarritz, France (7602): temperature 5cm: 12.10.2018 19:00:00 - 18.10.2018 19:00:00 (CEST)Biarritz, France (7602): temperature -20cm & temperature -100cm: 12.10.2018 19:00:00 - 18.10.2018 19:00:00 (CEST)Biarritz, France (7602): wind speed & gusts: 12.10.2018 19:00:00 - 18.10.2018 19:00:00 (CEST)Biarritz, France (7602): wind direction: 12.10.2018 19:00:00 - 18.10.2018 19:00:00 (CEST)Biarritz, France (7602): reduced air pressure: 12.10.2018 19:00:00 - 18.10.2018 19:00:00 (CEST)Biarritz, France (7602): visibility: 12.10.2018 19:00:00 - 18.10.2018 19:00:00 (CEST)Biarritz, France (7602): sunshine duration: 12.10.2018 19:00:00 - 18.10.2018 19:00:00 (CEST)Biarritz, France (7602): precipitation: 12.10.2018 19:00:00 - 18.10.2018 19:00:00 (CEST)
Date & Time tt [°C] td [°C] tt 5cm [°C] tt -20cm [°C] tt -100cm [°C] ff [km/h] ff [kn] fx [km/h] fx [kn] dd ppp [hPa] vv [km] sd [min] rr [mm]
18.10.2018 19:00:00 - - - - - - - - - - - - - -
18.10.2018 18:00:00 17,2 15,9 17,3 18,0 18,7 9 5 16 9 WNW 1015,2 7 0 0,0
18.10.2018 17:00:00 17,6 15,9 18,7 17,8 18,7 12 6 20 11 WNW 1015,2 8 0 0,0
18.10.2018 16:00:00 18,0 16,0 19,6 17,7 18,7 12 7 19 10 WNW 1015,1 9 21 0,0
18.10.2018 15:00:00 18,0 15,6 19,9 17,4 18,7 9 5 15 8 NW 1015,4 8 5 0,0
18.10.2018 14:00:00 18,7 15,2 20,9 17,2 18,7 5 3 12 7 NNE 1015,5 13 43 0,0
18.10.2018 13:00:00 17,9 15,3 19,2 17,0 18,7 2 1 10 6 NNW 1016,0 14 18 0,0
18.10.2018 12:00:00 16,2 15,1 17,4 17,0 18,7 5 3 10 5 NE 1016,3 8 0 0,0
18.10.2018 11:00:00 15,2 14,7 15,2 17,0 18,7 2 1 9 5 NE 1016,2 6 0 0,0
18.10.2018 10:00:00 14,8 14,5 13,9 17,0 18,7 0 0 4 2 N 1016,1 5 0 0,0
18.10.2018 09:00:00 13,7 13,4 12,7 17,1 18,7 2 1 6 3 WSW 1015,6 10 0 0,0
18.10.2018 08:00:00 13,2 12,9 11,5 17,1 18,7 4 2 6 4 S 1015,1 11 0 0,0
18.10.2018 07:00:00 12,6 12,3 11,6 17,2 18,7 4 2 10 5 S 1015,1 11 0 0,0
18.10.2018 06:00:00 12,3 12,0 11,2 17,3 18,7 4 2 8 5 SSE 1015,0 12 0 0,0
18.10.2018 05:00:00 12,2 11,9 9,0 17,4 18,7 3 2 6 3 S 1014,8 6 0 0,0
18.10.2018 04:00:00 11,7 11,2 8,1 17,5 18,7 5 3 8 5 SSE 1015,1 6 0 0,0
18.10.2018 03:00:00 11,8 11,3 9,8 17,7 18,7 8 4 10 5 SSE 1015,4 6 0 0,0
18.10.2018 02:00:00 13,0 12,4 9,7 17,8 18,7 5 3 8 4 SE 1015,4 6 0 0,0
18.10.2018 01:00:00 13,7 12,8 12,3 17,9 18,7 4 2 10 5 ENE 1015,4 8 0 0,0
18.10.2018 00:00:00 14,5 13,2 11,8 18,0 18,7 7 4 9 5 NE 1015,3 25 0 0,0
17.10.2018 23:00:00 13,9 12,5 11,8 18,2 18,7 8 4 11 6 ENE 1015,3 31 0 0,0
17.10.2018 22:00:00 15,1 13,0 12,7 18,3 18,7 5 3 14 7 ENE 1014,8 40 0 0,0
17.10.2018 21:00:00 16,2 12,9 15,0 18,3 18,7 8 5 15 8 ENE 1014,8 56 0 0,0
17.10.2018 20:00:00 16,6 12,9 15,5 18,4 18,7 10 5 22 12 E 1014,5 60 0 0,0
17.10.2018 19:00:00 18,6 14,3 18,2 18,3 18,7 12 6 21 12 ENE 1014,0 54 54 0,0
17.10.2018 18:00:00 19,3 15,6 21,7 18,3 18,7 11 6 18 10 ENE 1014,0 15 57 0,0
17.10.2018 17:00:00 19,8 15,2 20,6 18,1 18,7 10 5 23 12 ENE 1014,6 17 51 0,0
17.10.2018 16:00:00 19,2 14,9 23,1 17,9 18,7 11 6 21 11 NE 1014,9 19 56 0,0
17.10.2018 15:00:00 17,9 14,4 19,7 17,7 18,7 12 6 19 11 N 1015,7 18 23 0,0
17.10.2018 14:00:00 17,6 14,5 19,1 17,5 18,7 8 5 16 9 NNE 1016,4 16 0 0,0
17.10.2018 13:00:00 18,6 14,5 18,5 17,4 18,7 5 3 7 4 NE 1017,3 43 30 0,0
17.10.2018 12:00:00 16,8 15,1 17,1 17,4 18,8 3 2 6 4 WSW 1017,9 17 0 0,0
17.10.2018 11:00:00 16,3 14,8 16,6 17,3 18,7 0 0 7 4 N 1018,4 17 0 0,0
17.10.2018 10:00:00 15,4 14,6 15,3 17,3 18,8 3 1 5 3 S 1018,4 15 0 0,0
17.10.2018 09:00:00 15,1 14,3 14,8 17,4 18,8 4 2 5 3 S 1018,6 11 0 0,0
17.10.2018 08:00:00 15,5 14,5 15,1 17,4 18,7 0 0 8 4 N 1018,5 15 0 0,0
17.10.2018 07:00:00 15,4 14,6 14,8 17,4 18,8 4 2 9 5 WNW 1018,6 31 0 0,0
17.10.2018 06:00:00 15,2 14,7 14,7 17,5 18,8 3 2 8 4 WNW 1018,6 10 0 0,0
17.10.2018 05:00:00 15,0 14,5 14,4 17,5 18,8 6 3 8 5 W 1018,7 3,3 0 0,0
17.10.2018 04:00:00 14,6 14,1 14,3 17,6 18,8 4 2 6 3 SW 1018,9 10 0 0,0
17.10.2018 03:00:00 14,5 14,0 13,4 17,7 18,8 4 2 8 4 WSW 1019,4 9 0 0,0
17.10.2018 02:00:00 14,3 13,8 12,3 17,7 18,8 3 1 8 4 SW 1019,5 9 0 0,0
17.10.2018 01:00:00 14,0 13,4 11,1 17,8 18,8 6 3 8 4 SSE 1020,0 6 0 0,0
17.10.2018 00:00:00 14,3 13,7 12,8 17,9 18,8 4 2 5 3 S 1020,2 11 0 0,0
16.10.2018 23:00:00 13,9 13,1 11,5 18,0 18,8 4 2 7 4 SW 1020,4 10 0 0,0
16.10.2018 22:00:00 14,6 13,5 12,9 18,1 18,8 4 2 5 3 SW 1020,3 11 0 0,0
16.10.2018 21:00:00 15,4 13,9 14,3 18,2 18,8 3 1 11 6 N 1019,9 13 0 0,0
16.10.2018 20:00:00 15,6 14,0 14,7 18,2 18,8 6 4 11 6 N 1019,5 13 0 0,0
16.10.2018 19:00:00 16,9 14,0 17,5 18,2 18,8 7 4 16 9 NNW 1018,7 19 60 0,0
16.10.2018 18:00:00 18,1 13,8 21,6 18,1 18,8 10 5 16 9 N 1018,6 20 60 0,0
16.10.2018 17:00:00 18,3 14,8 22,7 17,9 18,8 10 5 16 9 NW 1018,4 20 60 0,0
16.10.2018 16:00:00 19,0 14,3 23,6 17,6 18,8 9 5 18 10 NW 1018,2 44 60 0,0
16.10.2018 15:00:00 18,6 14,3 23,5 17,3 18,8 10 5 16 9 NNW 1018,1 20 60 0,0
16.10.2018 14:00:00 18,1 14,2 21,3 17,1 18,9 8 5 16 9 NW 1017,9 19 55 0,0
16.10.2018 13:00:00 17,6 14,5 19,0 16,9 18,9 11 6 16 9 NNW 1017,9 18 34 0,0
16.10.2018 12:00:00 17,9 14,0 19,9 16,8 18,9 3 1 6 4 SW 1017,6 19 47 0,0
16.10.2018 11:00:00 16,6 14,8 17,9 16,8 18,9 0 0 5 3 N 1017,3 18 57 0,0
16.10.2018 10:00:00 14,0 13,7 11,3 16,8 18,9 4 2 6 3 ESE 1016,8 17 31 0,2
16.10.2018 09:00:00 11,5 11,2 9,4 16,9 18,9 4 2 8 4 SSE 1016,1 20 1 0,0
16.10.2018 08:00:00 11,4 11,1 10,4 17,0 18,9 6 3 8 5 SSE 1015,5 16 0 0,0
16.10.2018 07:00:00 11,5 11,2 11,5 17,1 18,9 3 2 7 4 SSE 1015,1 7 0 0,0
16.10.2018 06:00:00 11,6 11,3 7,9 17,2 18,9 4 2 7 4 SSE 1014,4 18 0 0,0
16.10.2018 05:00:00 11,0 10,7 7,8 17,3 18,9 4 2 6 3 SE 1013,9 0,5 0 0,0
16.10.2018 04:00:00 11,7 11,4 7,7 17,5 18,9 2 1 6 4 E 1013,3 3,8 0 0,0
16.10.2018 03:00:00 11,6 11,3 9,9 17,6 18,9 5 3 10 5 ESE 1013,0 1,1 0 0,0
16.10.2018 02:00:00 11,9 11,4 10,5 17,8 18,9 6 3 8 5 E 1012,7 18 0 0,0
16.10.2018 01:00:00 13,0 12,4 11,4 17,9 18,9 7 4 10 5 ENE 1012,7 36 0 0,0
16.10.2018 00:00:00 12,6 11,8 11,4 18,1 19,0 8 4 11 6 E 1012,3 48 0 0,0
15.10.2018 23:00:00 13,0 11,9 12,0 18,2 18,9 8 4 13 7 E 1011,7 60 0 0,0
15.10.2018 22:00:00 13,9 12,6 12,7 18,3 18,9 10 6 14 8 E 1010,9 60 0 0,0
15.10.2018 21:00:00 14,8 12,7 13,6 18,4 19,0 9 5 21 11 E 1010,6 60 0 0,0
15.10.2018 20:00:00 15,6 13,1 14,6 18,4 19,0 9 5 26 14 E 1010,2 60 0 0,0
15.10.2018 19:00:00 17,3 13,2 16,7 18,4 19,0 14 8 27 15 ENE 1009,2 60 35 0,0
15.10.2018 18:00:00 18,6 13,2 18,9 18,3 19,0 15 8 26 14 E 1008,4 60 39 0,0
15.10.2018 17:00:00 20,0 13,0 22,4 18,1 19,0 15 8 24 13 ENE 1007,9 53 54 0,0
15.10.2018 16:00:00 19,7 12,5 22,9 17,8 19,0 10 5 19 10 ENE 1007,8 53 55 0,0
15.10.2018 15:00:00 19,3 13,5 20,7 17,5 19,0 8 4 20 11 ENE 1008,0 60 48 0,0
15.10.2018 14:00:00 19,3 13,7 19,2 17,3 19,0 6 3 18 10 ESE 1008,2 39 46 0,0
15.10.2018 13:00:00 17,7 12,8 19,3 17,1 19,0 9 5 14 8 E 1008,4 56 43 0,0
15.10.2018 12:00:00 17,6 12,7 20,0 16,9 19,0 5 3 12 6 S 1008,2 47 60 0,0
15.10.2018 11:00:00 15,9 13,9 15,2 16,9 19,0 5 3 9 5 SSE 1008,5 49 27 0,0
15.10.2018 10:00:00 13,7 12,9 13,0 17,0 19,0 6 3 14 8 SSE 1008,4 33 0 0,0
15.10.2018 09:00:00 13,0 12,5 12,3 17,0 19,0 7 4 22 12 SW 1008,4 15 0 0,0
15.10.2018 08:00:00 12,9 12,4 12,6 17,1 19,0 10 5 24 13 SW 1008,4 14 0 0,0
15.10.2018 07:00:00 13,4 12,9 12,9 17,1 19,0 8 5 16 9 WSW 1008,2 12 0 0,2
15.10.2018 06:00:00 13,4 12,9 12,8 17,2 19,0 6 4 22 12 WSW 1008,2 6 0 2,4
15.10.2018 05:00:00 13,8 13,2 13,0 17,3 19,0 5 3 31 17 WSW 1008,6 3,0 0 7,3
15.10.2018 04:00:00 14,7 12,7 13,4 17,3 19,0 22 12 45 24 W 1009,0 19 0 0,0
15.10.2018 03:00:00 14,8 13,3 13,7 17,4 19,0 24 13 44 24 W 1009,4 11 0 0,2
15.10.2018 02:00:00 14,4 12,8 13,2 17,5 19,0 14 8 31 17 WSW 1009,6 22 0 0,0
15.10.2018 01:00:00 13,7 11,6 12,9 17,5 19,0 5 3 16 9 SSW 1009,9 35 0 0,0
15.10.2018 00:00:00 13,8 11,8 12,6 17,7 19,0 8 4 21 12 SW 1010,1 37 0 0,0
14.10.2018 23:00:00 13,0 11,9 12,2 17,7 19,0 4 2 14 7 SW 1010,5 58 0 0,0
14.10.2018 22:00:00 12,7 12,1 12,2 17,8 19,0 6 4 34 18 SW 1010,3 40 0 0,0
14.10.2018 21:00:00 13,0 12,4 12,3 17,9 19,0 17 9 39 21 WSW 1010,3 5 0 0,6
14.10.2018 20:00:00 13,5 12,7 12,8 18,0 19,0 14 8 44 24 WSW 1010,1 1,9 0 1,0
14.10.2018 19:00:00 14,1 12,5 13,0 18,2 19,0 21 12 50 27 W 1009,3 15 0 0,0
14.10.2018 18:00:00 13,8 12,5 13,0 18,3 19,0 23 13 51 28 W 1008,9 8 0 0,0
14.10.2018 17:00:00 14,3 12,3 13,6 18,4 19,0 24 13 51 27 W 1008,7 47 0 0,0
14.10.2018 16:00:00 14,3 13,0 13,3 18,5 19,0 29 16 66 35 W 1008,4 19 0 0,4
14.10.2018 15:00:00 14,1 13,6 13,6 18,6 19,0 23 12 45 25 W 1008,4 3,7 0 7,9
14.10.2018 14:00:00 14,3 13,8 13,9 18,7 19,0 15 8 71 38 WSW 1007,9 4,3 0 8,3
14.10.2018 13:00:00 15,1 14,1 14,5 18,7 19,0 26 14 62 34 W 1006,9 11 0 0,2
14.10.2018 12:00:00 16,3 14,5 16,6 18,7 19,0 43 23 67 36 W 1006,1 16 0 0,0
14.10.2018 11:00:00 17,7 16,2 17,8 18,7 19,0 27 15 49 26 WNW 1004,7 14 0 0,0
14.10.2018 10:00:00 24,0 14,1 23,3 18,7 19,0 18 10 41 22 S 1002,5 40 0 0,0
14.10.2018 09:00:00 24,4 13,9 22,9 18,8 19,0 16 9 49 27 S 1001,6 51 6 0,0
14.10.2018 08:00:00 23,9 14,0 21,8 18,8 19,0 19 10 44 24 S 1001,5 49 0 0,0
14.10.2018 07:00:00 23,0 14,3 21,3 18,9 19,0 17 9 51 27 SSE 1002,1 49 0 0,0
14.10.2018 06:00:00 23,6 13,7 21,9 18,9 19,0 24 13 53 28 S 1003,3 54 0 0,0
14.10.2018 05:00:00 23,8 13,6 22,5 18,9 18,9 26 14 50 27 SSE 1003,9 48 0 0,0
14.10.2018 04:00:00 24,5 13,4 22,0 19,0 19,0 23 12 42 23 S 1004,2 18 0 0,0
14.10.2018 03:00:00 23,9 13,7 17,3 19,1 18,9 10 5 35 19 ESE 1005,2 41 0 0,0
14.10.2018 02:00:00 18,7 15,4 17,1 19,2 18,9 10 5 21 12 E 1005,9 36 0 0,0
14.10.2018 01:00:00 19,7 16,0 16,7 19,3 18,9 10 5 18 10 NE 1006,4 38 0 0,0
14.10.2018 00:00:00 19,3 15,4 17,2 19,4 18,9 10 6 17 9 ESE 1007,4 42 0 0,0
13.10.2018 23:00:00 20,3 15,7 17,4 19,5 18,9 8 5 11 6 E 1008,5 37 0 0,0
13.10.2018 22:00:00 21,9 15,7 16,6 19,5 18,9 6 3 9 5 E 1009,2 40 0 0,0
13.10.2018 21:00:00 22,4 15,7 17,7 19,6 18,9 5 3 14 8 ESE 1009,6 20 0 0,0
13.10.2018 20:00:00 23,2 16,5 20,6 19,5 18,9 10 5 14 7 SE 1010,1 42 5 0,0
13.10.2018 19:00:00 25,7 16,5 25,2 19,5 18,9 8 4 16 9 SE 1010,3 41 34 0,0
13.10.2018 18:00:00 27,3 16,0 27,3 19,3 18,9 11 6 17 9 SSE 1010,6 20 3 0,0
13.10.2018 17:00:00 29,4 15,1 31,2 19,1 18,9 6 3 19 11 S 1011,0 45 53 0,0
13.10.2018 16:00:00 29,4 15,5 32,0 18,8 18,9 7 4 22 12 SSW 1011,5 36 57 0,0
13.10.2018 15:00:00 28,9 15,8 30,4 18,6 18,9 8 5 25 13 S 1012,5 41 40 0,0
13.10.2018 14:00:00 28,0 15,3 29,9 18,3 18,9 16 9 35 19 S 1013,3 28 54 0,0
13.10.2018 13:00:00 27,1 15,8 29,0 18,1 18,9 12 7 31 17 S 1014,2 50 46 0,0
13.10.2018 12:00:00 24,4 17,4 25,9 17,9 18,9 7 4 10 5 ENE 1015,2 52 53 0,0
13.10.2018 11:00:00 21,5 16,9 21,2 17,9 18,9 4 2 9 5 ENE 1015,5 30 60 0,0
13.10.2018 10:00:00 18,4 15,8 18,3 17,9 18,9 5 3 9 5 E 1015,5 39 60 0,0
13.10.2018 09:00:00 16,0 14,7 12,9 18,0 18,9 5 3 10 5 E 1015,6 28 21 0,0
13.10.2018 08:00:00 14,7 13,6 13,2 18,1 18,9 5 3 13 7 E 1015,6 26 0 0,0
13.10.2018 07:00:00 15,0 13,9 12,9 18,2 18,9 7 4 10 6 E 1015,7 38 0 0,0
13.10.2018 06:00:00 15,6 14,3 13,0 18,3 18,9 5 3 13 7 E 1016,0 44 0 0,0
13.10.2018 05:00:00 15,9 14,4 13,5 18,4 18,9 8 4 15 8 E 1016,1 39 0 0,0
13.10.2018 04:00:00 16,9 14,7 12,6 18,5 18,9 5 3 8 5 SE 1016,6 53 0 0,0
13.10.2018 03:00:00 16,6 15,0 13,9 18,6 18,9 5 3 9 5 E 1017,3 42 0 0,0
13.10.2018 02:00:00 17,5 14,9 15,5 18,7 18,9 6 4 10 5 ESE 1017,5 55 0 0,0
13.10.2018 01:00:00 18,4 15,1 13,6 18,8 18,9 3 2 9 5 SE 1017,9 48 0 0,0
13.10.2018 00:00:00 19,3 15,2 16,5 18,9 18,9 7 4 17 9 SE 1018,1 52 0 0,0
12.10.2018 23:00:00 18,7 15,9 16,3 18,9 18,9 7 4 13 7 ESE 1018,5 50 0 0,0
12.10.2018 22:00:00 19,7 16,3 16,4 19,0 18,9 8 5 13 7 E 1018,8 54 0 0,0
12.10.2018 21:00:00 21,6 16,5 16,5 19,0 18,9 7 4 10 6 SSE 1018,6 58 0 0,0
12.10.2018 20:00:00 22,6 17,1 18,9 19,0 18,9 6 3 11 6 ESE 1018,2 50 6 0,0
12.10.2018 19:00:00 24,3 17,8 23,4 18,9 18,9 7 4 10 5 SE 1017,8 19 35 0,0

tt = temperature
td = dewpoint
tt 5cm = temperature 5cm
tt -20cm = temperature -20cm
tt -100cm = temperature -100cm
ff = wind speed
fx = gusts
dd = wind direction
ppp = reduced air pressure
vv = visibility
sd = sunshine duration
rr = precipitation

Next stations